Lid_Strength_Index
2 2 2 3 3 3 3 3 3 4 4 4 4 4 4 4 4 4 4 4 4 4 4 4 4 4 6 9 9 4 -1 -1 0 2 5 7 9 9 11 9 9 10 10 9 8 8 8
3 3 3 3 3 3 3 3 4 4 4 4 4 4 4 4 4 4 4 5 5 4 4 4 4 4 7 12 5 3 3 2 3 4 6 6 8 7 9 9 10 9 9 9 9 10 9
3 3 3 3 4 4 3 4 4 4 4 4 4 4 4 4 4 5 5 5 4 4 4 4 4 6 8 10 4 3 4 2 3 4 6 5 6 8 8 10 8 8 10 9 9 10 10
4 4 3 4 4 4 5 5 5 5 4 4 4 4 5 5 5 5 5 5 5 4 4 4 4 6 11 5 4 5 4 4 2 3 4 5 5 7 8 8 8 11 11 13 11 9 9
4 4 4 4 4 5 5 5 5 5 5 5 5 5 5 5 5 4 5 5 4 4 4 4 5 7 10 3 6 4 4 5 4 4 4 4 6 8 8 11 13 12 15 14 12 10 10
6 5 5 5 6 6 6 6 6 6 6 6 6 6 6 6 5 5 5 5 5 4 5 4 5 9 7 9 4 3 3 3 5 5 6 7 8 11 11 14 17 15 14 12 12 11 9
6 6 6 6 6 6 6 6 6 6 6 7 6 6 6 6 6 6 7 8 9 9 7 9 9 9 8 5 3 4 3 4 5 6 10 9 12 14 12 10 10 11 12 12 11 9 10
7 7 7 7 7 7 6 7 6 6 6 6 6 6 6 6 5 6 7 10 8 7 12 7 7 6 5 4 7 5 3 6 7 9 9 11 13 11 9 9 10 11 13 12 10 9 10
7 7 7 7 7 7 7 7 6 6 6 6 6 6 5 5 5 7 8 7 4 4 11 9 7 7 6 5 7 6 5 6 7 9 10 12 11 8 9 10 11 11 13 12 12 9 9
7 7 7 7 7 7 6 6 6 6 6 6 6 6 5 5 8 8 9 6 4 5 14 13 10 7 6 7 9 4 3 5 7 9 9 10 8 9 9 10 9 12 10 10 11 11 14
7 7 6 6 6 6 6 6 6 6 6 6 6 5 5 5 8 9 7 4 4 6 20 10 8 4 5 7 6 6 3 5 9 9 8 10 9 9 10 9 8 10 8 10 10 12 13
7 7 7 6 6 6 6 6 6 6 6 5 5 5 5 6 6 5 4 4 5 12 19 11 7 8 8 7 7 6 6 4 5 8 8 8 6 7 8 7 7 7 9 10 10 13 17
7 7 7 6 6 6 6 5 5 5 5 5 5 5 5 5 8 5 4 6 13 17 8 10 9 8 9 10 9 9 8 9 11 13 13 10 9 7 6 9 7 9 12 16 16 17 17
7 6 6 6 6 6 6 5 5 5 5 5 4 4 4 4 3 3 5 9 17 11 11 7 8 9 10 9 10 10 11 12 8 9 12 14 15 9 6 8 10 10 11 16 20 18 16
7 7 6 6 6 6 6 5 5 5 5 5 4 4 4 3 1 2 6 14 14 11 8 9 9 11 11 10 11 11 12 12 9 8 13 13 13 8 7 6 8 11 12 10 14 15 18
7 7 7 6 6 5 5 5 5 4 4 4 5 5 4 2 1 3 9 13 12 8 7 8 13 11 14 12 12 13 13 10 11 9 7 10 14 9 8 7 7 10 9 13 13 20 22
8 7 7 6 5 5 5 4 4 4 3 3 5 7 3 0 1 7 13 11 9 6 7 11 12 12 12 12 11 13 13 10 9 10 9 10 12 12 10 10 11 11 11 11 13 15 20
8 7 6 6 5 5 4 4 4 3 3 3 6 10 2 1 9 9 11 10 8 8 6 8 9 10 11 11 11 13 13 11 8 9 12 10 12 15 13 9 7 9 10 11 17 18 16
7 7 5 5 5 5 4 4 3 2 2 4 8 7 2 3 12 11 9 9 8 9 9 10 10 9 9 11 13 12 11 8 8 9 12 11 14 18 16 12 10 11 9 10 12 14 17
6 6 5 5 5 5 5 4 2 2 1 3 7 10 6 5 6 9 11 10 10 7 8 8 9 9 11 11 10 12 11 9 8 9 8 9 13 15 18 15 12 12 10 10 12 17 17
7 6 6 6 5 4 4 3 2 2 1 2 5 8 7 11 10 9 9 9 10 12 8 8 9 10 11 14 12 12 10 10 9 8 9 11 15 13 12 11 11 12 12 11 13 13 16
7 7 7 6 5 4 3 2 1 1 1 3 7 8 6 8 8 9 9 10 11 10 10 10 11 10 10 13 12 13 11 11 12 10 11 10 15 13 15 12 12 13 12 12 11 12 13
7 7 6 5 4 4 2 1 1 0 1 4 3 3 6 8 9 10 10 10 10 9 8 8 9 10 11 10 9 8 8 8 9 11 12 12 13 15 18 13 13 16 13 12 12 11 12
7 5 5 5 4 2 2 1 1 -0 -0 2 3 3 8 10 9 9 9 8 9 9 10 8 8 10 8 6 6 7 8 8 9 9 9 12 13 14 17 15 21 13 9 9 10 10 10
6 5 5 4 3 2 2 1 0 -0 -1 1 1 3 7 11 9 9 8 9 8 7 9 9 7 7 6 8 11 13 13 12 11 9 10 10 13 16 18 18 15 12 10 11 12 12 9
5 5 4 3 2 2 1 0 -0 -1 -1 0 1 1 4 10 9 7 9 8 10 10 9 8 6 5 7 10 12 16 18 15 16 13 9 10 10 14 16 19 20 13 8 7 7 15 8
5 5 3 2 2 1 1 0 -0 -1 -1 0 1 0 3 8 7 6 9 9 7 8 10 9 8 8 7 11 14 16 16 12 16 16 15 14 14 16 16 18 15 9 7 6 15 16 8
5 4 3 2 1 1 0 -0 -1 -1 -1 -0 1 0 3 7 6 6 5 7 7 7 11 8 9 9 10 13 14 14 14 13 13 12 14 15 16 16 15 17 19 7 8 13 10 7 7
4 3 2 1 1 1 -0 -1 -1 -2 -1 -1 3 -0 0 5 6 4 4 3 4 4 6 7 8 9 9 11 11 12 14 12 13 16 9 15 12 14 14 15 9 7 8 7 6 7 7